DELTA 1 DEB, 21275

Orbit data source: Space-Track

DELTA 1 DEB, 21275 is space debris in SSO originally from a launch on Thu, 12 Jun 1975 UTC launched from the Air Force Western Test Range (AFWTR). Debris objects in space refer to the collection of defunct objects orbiting the Earth. Examples of debris include non-operational satellites, rocket bodies, and fragments generated from explosions, collisions, or faulty payload assembly.

Loading next visibility...
Identifier
21275, 1975-052L
Orbit
SSO
Country
Flag of USUS
Related business
Manufacturer
Unknown
Mission
Spacecraft
Bus & Motor
Unknown
Mass
Unknown
Launch date (UTC)
1975-06-12 (51 years ago)
Launch vehicle
Unknown
Launch site
Air Force Western Test Range (AFWTR)
Object type
Payload
Rocket body
Debris
Shape & HBR
Unknown shape, 0.2 m
Radar Cross Section
Small (<0.1 m²)

Expand to show TLE details & history
Last TLE update: 21 hours ago

TLE from 21 hours ago
0 DELTA 1 DEB
1 21275U 75052L   25348.68396919  .00000059  00000-0  15908-3 0  9999
2 21275  99.8836 252.3643 0033131 275.4463 156.9668 13.51866754707347
Epoch: 2025-12-14T16:24Z
TLE epoch observation values (Epoch: 2025-12-14T16:24:54.938Z)
Latitude
70.10684°
Longitude
-106.07992°
Altitude
1,100.146 km
Speed
7.297 km/s
True Right ascension
14h 54m 58s
True Declination
70° 00' 06"
Sunlit
Object was in daylight at epoch
Visualization orbit readout
Latitude
Unknown
Longitude
Unknown
Altitude
Unknown
Speed
Unknown
Apparent Right ascension
Unknown
Apparent Declination
Unknown
Sunlit
N/A
Visualization observer readout
Local Sidereal Time
11:43:44
Azimuth
Unknown
Elevation
Unknown
Doppler factor
Unknown
Orbital elements
Apogee altitude
1,087.359 km
Perigee altitude
1,038.054 km
Semi-major axis
7,440.844 km
Eccentricity
0.00331
Inclination
99.8836°
RAAN
252.3643°
Arg. of periapsis
275.4463°
True anomaly
157.11478°
Mean anomaly
156.9668°
Eccentric anomaly
157.04085°
Mean motion
3.3815 °/min
Orbital period
106.46 mins
BSTAR
0.00015908
Loading maneuver chart data...
Computing Atmospheric mass density...

Documentation

Showing up to 5 results
|